This is the latest recevied weather packets stored in our database for station/object VK6DUG. If no packets are shown the sender has not sent any weather packets the latest 10 day(s).
| Time | Temp. | Humidity | Pressure | Rain* | Wind** | Luminosity | Snow |
|---|---|---|---|---|---|---|---|
| 1778059222 | 20° C | 56% | 1031.3 hPa | 0 mm | - | 14 W/m² | - |
| 1778058619 | 20° C | 55% | 1031.3 hPa | 0 mm | - | 20 W/m² | - |
| 1778058035 | 20.56° C | 53% | 1031.2 hPa | 0 mm | - | 26 W/m² | - |
| 1778057432 | 21.11° C | 53% | 1031.1 hPa | 0 mm | - | 32 W/m² | - |
| 1778056828 | 21.67° C | 52% | 1031.1 hPa | 0 mm | - | 50 W/m² | - |
| 1778056224 | 21.67° C | 51% | 1031.1 hPa | 0 mm | - | 68 W/m² | - |
| 1778055622 | 21.67° C | 51% | 1031 hPa | 0 mm | - | 102 W/m² | - |
| 1778055020 | 21.67° C | 51% | 1031 hPa | 0 mm | - | 132 W/m² | - |
| 1778054417 | 21.67° C | 50% | 1031 hPa | 0 mm | - | 164 W/m² | - |
| 1778053833 | 21.67° C | 51% | 1030.9 hPa | 0 mm | - | 189 W/m² | - |
| 1778053230 | 22.22° C | 50% | 1031 hPa | 0 mm | - | 218 W/m² | - |
| 1778052627 | 22.22° C | 51% | 1031 hPa | 0 mm | - | 248 W/m² | - |
| 1778052025 | 22.22° C | 50% | 1031 hPa | 0 mm | - | 285 W/m² | - |
| 1778051423 | 22.22° C | 50% | 1031 hPa | 0 mm | - | 302 W/m² | - |
| 1778050820 | 22.22° C | 51% | 1030.9 hPa | 0 mm | - | 358 W/m² | - |
| 1778050217 | 22.22° C | 50% | 1030.9 hPa | 0 mm | - | 355 W/m² | - |
| 1778049634 | 22.22° C | 51% | 1030.8 hPa | 0 mm | - | 421 W/m² | - |
| 1778049032 | 21.67° C | 52% | 1030.9 hPa | 0 mm | - | 431 W/m² | - |
| 1778048429 | 22.22° C | 52% | 1030.9 hPa | 0 mm | - | 469 W/m² | - |
| 1778047826 | 21.67° C | 52% | 1031 hPa | 0 mm | - | 483 W/m² | - |
| 1778047225 | 21.67° C | 53% | 1031.1 hPa | 0 mm | - | 284 W/m² | - |
| 1778046620 | 22.22° C | 51% | 1031 hPa | 0 mm | - | 520 W/m² | - |
| 1778046018 | 22.22° C | 53% | 1031.1 hPa | 0 mm | - | 532 W/m² | - |
| 1778045435 | 22.22° C | 53% | 1031 hPa | 0 mm | - | 538 W/m² | - |
| 1778044833 | 22.22° C | 53% | 1031.1 hPa | 0 mm | - | 544 W/m² | - |
* Rain latest hour (hover to see other rain measurements)
** Current wind speed in m/s (hover to see current wind gust speed)